Dayton, OH

9:56 PM EST on January 22, 2017 (GMT -0500)
Wright-Patterson Air Force Base

Weather History for KFFO - July, 2012

Change the Weather History Date:

Tuesday, July 10, 2012

  Actual Average Record
Temperature  
Mean Temperature 78 °F -  
Max Temperature 91 °F 81 °F 91 °F (2006)
Min Temperature 65 °F 60 °F 51 °F (1997)
Cooling Degree Days 13    
Growing Degree Days 28 (Base 50)    
Moisture  
Dew Point 58 °F    
Average Humidity 53    
Maximum Humidity 84    
Minimum Humidity 27    
Precipitation  
Precipitation 0.00 in - - ()
Sea Level Pressure  
Sea Level Pressure 30.02 in    
Wind  
Wind Speed 3 mph (North)    
Max Wind Speed 13 mph    
Max Gust Speed -    
Visibility 10 miles    
Events      
Averages and records for this station are not official NWS values.
T = Trace of Precipitation, MM = Missing Value Source: NWS Daily Summary

Daily Weather History Graph

Daily Weather History Graph

Search for Another Location

Airport or City:

Trip Planner

Search our weather history database for the weather conditions in past years. The results will help you decide how hot, cold, wet, or windy it might be!

Date:

Astronomy

Jul. 10, 2012 Rise Set
Actual Time 6:17 AM EDT 9:05 PM EDT
Civil Twilight 5:45 AM EDT 9:37 PM EDT
Nautical Twilight 5:04 AM EDT 10:17 PM EDT
Astronomical Twilight 4:18 AM EDT 11:03 PM EDT
Moon 12:22 AM EDT (7/10) 1:41 PM EDT (7/10)
Length of Visible Light 15h 52m
Length of Day
14h 48m
Waning Gibbous, 54% of the Moon is Illuminated
Jul 10
Waning Gibbous
Jul 10
Last Quarter
Jul 19
New
Jul 26
First Quarter
Aug 1
Full

Hourly Weather History & Observations

Time (EDT) Temp. Heat Index Dew Point Humidity Pressure Visibility Wind Dir Wind Speed Gust Speed Precip Events Conditions
12:55 AM 72.5 °F - 61.3 °F 68% 30.02 in 10.0 mi Calm Calm - N/A   Mostly Cloudy
1:55 AM 70.2 °F - 60.6 °F 72% 30.01 in 10.0 mi Calm Calm - N/A   Mostly Cloudy
2:55 AM 71.1 °F - 61.5 °F 72% 30.00 in 10.0 mi Calm Calm - N/A   Scattered Clouds
3:55 AM 67.6 °F - 59.7 °F 76% 30.00 in 10.0 mi Calm Calm - N/A   Clear
4:55 AM 67.1 °F - 59.7 °F 77% 30.01 in 10.0 mi Calm Calm - N/A   Clear
5:55 AM 65.8 °F - 61.0 °F 84% 30.02 in 10.0 mi Calm Calm - N/A   Partly Cloudy
6:55 AM 66.7 °F - 61.0 °F 82% 30.03 in 10.0 mi Calm Calm - N/A   Scattered Clouds
7:55 AM 71.1 °F - 61.3 °F 71% 30.03 in 10.0 mi Calm Calm - N/A   Partly Cloudy
8:55 AM 74.8 °F - 62.2 °F 65% 30.04 in 10.0 mi NNW 4.6 mph - N/A   Partly Cloudy
9:55 AM 79.0 °F - 60.1 °F 52% 30.05 in 10.0 mi Calm Calm - N/A   Clear
10:55 AM 82.4 °F 83.0 °F 61.5 °F 49% 30.04 in 10.0 mi WNW 6.9 mph - N/A   Clear
11:55 AM 85.8 °F 84.5 °F 56.3 °F 36% 30.04 in 10.0 mi NNE 6.9 mph - N/A   Clear
12:55 PM 86.9 °F 85.3 °F 55.4 °F 34% 30.04 in 10.0 mi Calm Calm - N/A   Clear
1:55 PM 88.3 °F 86.5 °F 55.4 °F 32% 30.03 in 10.0 mi North 9.2 mph - N/A   Partly Cloudy
2:55 PM 89.4 °F 87.5 °F 54.7 °F 31% 30.01 in 10.0 mi North 10.4 mph - N/A   Clear
3:55 PM 91.2 °F - 52.3 °F 27% 30.00 in 10.0 mi NW 9.2 mph - N/A   Scattered Clouds
4:55 PM 89.8 °F 87.5 °F 54.0 °F 29% 29.99 in 10.0 mi NW 9.2 mph - N/A   Clear
5:55 PM 89.1 °F 86.9 °F 53.4 °F 30% 29.99 in 10.0 mi NNE 6.9 mph - N/A   Scattered Clouds
6:55 PM 88.9 °F - 52.7 °F 29% 29.99 in 10.0 mi NNW 8.1 mph - N/A   Partly Cloudy
7:55 PM 87.1 °F 85.3 °F 54.3 °F 33% 29.99 in 10.0 mi North 9.2 mph - N/A   Partly Cloudy
8:55 PM 81.5 °F 82.8 °F 63.3 °F 54% 30.02 in 10.0 mi NNE 12.7 mph - N/A   Partly Cloudy
9:55 PM 78.3 °F - 62.6 °F 58% 30.04 in 10.0 mi NNE 11.5 mph - N/A   Clear
10:55 PM 75.9 °F - 58.5 °F 55% 30.06 in 10.0 mi NNE 8.1 mph - N/A   Clear
11:55 PM 73.8 °F - 56.1 °F 54% 30.07 in 10.0 mi NNE 9.2 mph - N/A   Clear